[[{"header":{"parameterUnit":"m.s-1","parameterCategory":1,"la1":30.2992,"la2":30.254,"lo1":-89.0895,"lo2":-89.0443,"dy":0.0025,"dx":0.0025,"nx":19,"ny":19,"refTime":"2026-03-09T03:00:00:Z","depth":0,"parameterNumber":2,"parameterNumberName":"U-component_of_WINDS"},"data":[0,0,0,-2.0473,-2.0472,-2.0427,-2.0426,-2.0379,-2.0379,0,0,0,0,0,0,0,0,0,0,0,-2.0494,-2.0494,-2.0473,-2.0472,-2.0427,-2.0426,-2.0379,-2.0379,0,0,0,0,0,0,0,0,0,0,0,-2.0494,-2.0494,-2.0494,-2.0472,-2.0427,-2.0426,-2.038,-2.041,0,0,0,0,0,0,0,0,0,0,-2.0452,-2.0479,-2.0494,-2.0494,-2.0472,-2.0427,-2.0426,-2.0411,-2.0408,-2.0405,0,-2.0405,0,-2.0391,-2.0377,-2.0377,0,0,0,-2.0466,-2.0481,-2.0462,-2.0494,-2.0471,-2.0427,-2.0445,-2.0409,-2.0406,-2.0401,-2.0404,-2.0402,-2.0391,-2.0377,-2.0376,-2.038,-2.038,0,0,-2.0469,-2.049,-2.0465,-2.046,-2.0469,-2.0447,-2.0444,-2.0407,-2.0412,-2.0404,-2.0401,-2.039,-2.0376,-2.0376,-2.0379,-2.038,0,0,0,-2.048,-2.0492,-2.0473,-2.0463,-2.0454,-2.0446,-2.0443,-2.0413,-2.0406,-2.04,-2.0389,-2.0376,-2.0376,-2.0379,-2.038,-2.0413,0,0,0,-2.0481,-2.0498,-2.0475,-2.0487,-2.0455,-2.0433,-2.045,-2.0408,-2.0403,-2.039,-2.0376,-2.0375,-2.0379,-2.0379,-2.0412,-2.0425,0,0,0,-2.0494,-2.0499,-2.0496,-2.0488,-2.0469,-2.0433,-2.0423,-2.0407,-2.0397,-2.0377,-2.0375,-2.0379,-2.0379,-2.041,-2.0423,-2.0431,0,0,0,-2.0514,-2.0527,-2.0496,-2.0506,-2.047,-2.0455,-2.0423,-2.0411,-2.0398,-2.0376,-2.0379,-2.0379,-2.041,-2.0421,-2.043,-2.0441,-2.0448,0,0,-2.0542,-2.0531,-2.0535,-2.0506,-2.0502,-2.046,-2.046,-2.0428,-2.0407,-2.039,-2.039,-2.0412,-2.0423,-2.0431,-2.0483,-2.0488,0,0,0,-2.0551,-2.0554,-2.0548,-2.0536,-2.0513,-2.0492,-2.0458,-2.0446,-2.043,-2.0403,-2.0417,-2.0423,-2.0427,-2.0431,-2.0436,-2.0437,-2.0383,-2.0383,-2.0383,-2.062,-2.0592,-2.0596,-2.0562,-2.0551,-2.0515,-2.0503,-2.0481,-2.0456,-2.046,-2.0454,-2.0489,-2.0495,-2.0499,-2.05,-2.0459,-2.0459,-2.0459,-2.0459,-2.0657,-2.0656,-2.0622,-2.0614,-2.0584,-2.0577,-2.0542,-2.0525,-2.0513,-2.0492,-2.0493,-2.0472,-2.0506,-2.0506,-2.0462,-2.0461,-2.0461,-2.0461,-2.0461,-2.0698,-2.0693,-2.0678,-2.0656,-2.0643,-2.0609,-2.0598,-2.0571,-2.0546,-2.0548,-2.0538,-2.0538,-2.0532,-2.0546,-2.0546,-2.0546,-2.0546,-2.0546,-2.0546,-2.0746,-2.0728,-2.0723,-2.0697,-2.0685,-2.0666,-2.0629,-2.0616,-2.0595,-2.0576,-2.0576,-2.055,-2.0515,-2.0506,-2.0548,-2.0547,-2.0547,-2.0547,-2.0547,-2.0792,-2.0777,-2.0769,-2.0757,-2.0724,-2.0712,-2.0678,-2.0653,-2.0639,-2.0634,-2.0608,-2.0587,-2.0573,-2.0569,-2.0561,-2.0615,-2.0615,-2.0615,-2.0615,-2.0826,-2.0817,-2.0802,-2.0784,-2.0763,-2.0731,-2.0721,-2.0692,-2.066,-2.0648,-2.0637,-2.0625,-2.0622,-2.061,-2.0605,-2.0597,-2.0659,-2.0659,-2.0659,-2.0852,-2.084,-2.0837,-2.0805,-2.0776,-2.0752,-2.0741,-2.0721,-2.0681,-2.066,-2.0639,-2.0637,-2.0617,-2.0612,-2.059,-2.0582,-2.0567,0,0]},{"header":{"parameterUnit":"m.s-1","parameterCategory":1,"la1":30.2992,"la2":30.254,"lo1":-89.0895,"lo2":-89.0443,"dy":0.0025,"dx":0.0025,"nx":19,"ny":19,"refTime":"2026-03-09T03:00:00:Z","depth":0,"parameterNumber":3,"parameterNumberName":"V-component_of_WINDS"},"data":[0,0,0,3.2351,3.2352,3.2431,3.2432,3.2526,3.2527,0,0,0,0,0,0,0,0,0,0,0,3.2324,3.2325,3.2351,3.2353,3.2431,3.2432,3.2526,3.2527,0,0,0,0,0,0,0,0,0,0,0,3.2324,3.2325,3.2325,3.2353,3.2431,3.2432,3.2526,3.2469,0,0,0,0,0,0,0,0,0,0,3.2393,3.2365,3.2324,3.2325,3.2353,3.2431,3.2432,3.2466,3.2472,3.2488,0,3.2503,0,3.2517,3.2533,3.2534,0,0,0,3.2354,3.236,3.2385,3.2325,3.2354,3.2431,3.2396,3.2469,3.2476,3.2497,3.2504,3.2508,3.2518,3.2534,3.2534,3.2626,3.2626,0,0,3.235,3.2336,3.238,3.2389,3.2377,3.2394,3.2399,3.2474,3.248,3.2504,3.251,3.252,3.2534,3.2535,3.2626,3.2626,0,0,0,3.2336,3.2333,3.2356,3.2385,3.24,3.2396,3.2402,3.2477,3.2486,3.2511,3.2521,3.2535,3.2536,3.2625,3.2626,3.2632,0,0,0,3.2334,3.2325,3.2354,3.2346,3.2398,3.2439,3.2403,3.248,3.2489,3.252,3.2535,3.2537,3.2625,3.2626,3.2631,3.2637,0,0,0,3.232,3.2324,3.2334,3.2345,3.2379,3.2439,3.2452,3.2483,3.2495,3.2534,3.2537,3.2625,3.2625,3.263,3.2635,3.266,0,0,0,3.2301,3.2335,3.2334,3.2376,3.2378,3.2442,3.2451,3.2499,3.2532,3.2535,3.2625,3.2626,3.263,3.2635,3.2659,3.2679,3.2685,0,0,3.2337,3.2339,3.2365,3.2366,3.2427,3.2431,3.2492,3.2534,3.2549,3.2599,3.2602,3.2631,3.2635,3.2659,3.2724,3.2729,0,0,0,3.2372,3.2391,3.241,3.2443,3.2477,3.2508,3.2543,3.2559,3.2603,3.2572,3.2646,3.2648,3.2663,3.2674,3.2678,3.2693,3.2629,3.2629,3.2629,3.2402,3.2422,3.2468,3.2498,3.253,3.2567,3.2595,3.2623,3.2631,3.2648,3.2664,3.2701,3.2712,3.2716,3.2731,3.2674,3.2674,3.2674,3.2674,3.2458,3.2489,3.2503,3.2553,3.2574,3.2615,3.2653,3.2658,3.27,3.2689,3.2703,3.2692,3.2721,3.2735,3.2675,3.2675,3.2675,3.2675,3.2674,3.2482,3.2501,3.2521,3.2573,3.2611,3.264,3.2681,3.2697,3.2713,3.2726,3.2746,3.2746,3.2751,3.2734,3.2735,3.2735,3.2735,3.2735,3.2735,3.2499,3.2522,3.2556,3.2599,3.2624,3.2659,3.2699,3.2723,3.2755,3.2764,3.2764,3.2773,3.2719,3.2707,3.2737,3.2737,3.2736,3.2736,3.2736,3.2551,3.2543,3.2594,3.262,3.2674,3.2712,3.2733,3.2783,3.2806,3.2826,3.2832,3.2789,3.2792,3.2789,3.2779,3.2826,3.2826,3.2826,3.2826,3.2572,3.2576,3.2636,3.2676,3.2717,3.2743,3.2802,3.2835,3.2866,3.2882,3.2877,3.2865,3.286,3.2866,3.2861,3.2853,3.2917,3.2917,3.2917,3.2607,3.2617,3.2664,3.2697,3.2741,3.2779,3.2836,3.2882,3.2915,3.2921,3.2896,3.2892,3.2872,3.2864,3.287,3.2861,3.2845,0,0]}]]